TimeEDT,TemperatureF,Dew PointF,Humidity,Sea Level PressureIn,VisibilityMPH,Wind Direction,Wind SpeedMPH,Gust SpeedMPH,PrecipitationIn,Events,Conditions,WindDirDegrees,DateUTC
12:17 AM,19.4,12.2,74,29.88,10.0,West,4.6,-,N/A,,Clear,260,2013-03-21 04:17:00
12:36 AM,17.6,12.2,79,29.88,10.0,West,5.8,-,N/A,,Clear,270,2013-03-21 04:36:00
12:57 AM,17.6,12.2,79,29.88,10.0,West,5.8,-,N/A,,Clear,260,2013-03-21 04:57:00
1:16 AM,17.6,12.2,79,29.87,10.0,West,5.8,-,N/A,,Clear,260,2013-03-21 05:16:00
1:37 AM,17.6,12.2,79,29.87,10.0,WSW,5.8,-,N/A,,Clear,250,2013-03-21 05:37:00
1:57 AM,17.6,12.2,79,29.87,10.0,West,4.6,-,N/A,,Clear,270,2013-03-21 05:57:00
2:16 AM,17.6,12.2,79,29.86,10.0,WSW,4.6,-,N/A,,Clear,250,2013-03-21 06:16:00
2:37 AM,17.6,12.2,79,29.86,10.0,WSW,5.8,-,N/A,,Mostly Cloudy,250,2013-03-21 06:37:00
2:56 AM,17.6,12.2,79,29.85,10.0,WSW,4.6,-,N/A,,Overcast,240,2013-03-21 06:56:00
3:17 AM,17.6,12.2,79,29.85,10.0,West,4.6,-,N/A,,Overcast,260,2013-03-21 07:17:00
3:37 AM,17.6,12.2,79,29.84,10.0,WSW,5.8,-,N/A,,Overcast,250,2013-03-21 07:37:00
3:56 AM,17.6,12.2,79,29.84,10.0,West,3.5,-,N/A,,Overcast,270,2013-03-21 07:56:00
4:17 AM,17.6,12.2,79,29.83,10.0,West,5.8,-,N/A,,Overcast,270,2013-03-21 08:17:00
4:36 AM,17.6,14.0,86,29.82,10.0,WSW,5.8,-,N/A,,Overcast,250,2013-03-21 08:36:00
4:57 AM,17.6,14.0,86,29.82,7.0,West,5.8,-,N/A,Snow,Light Snow,260,2013-03-21 08:57:00
5:17 AM,17.6,14.0,86,29.81,10.0,WSW,6.9,-,N/A,,Scattered Clouds,250,2013-03-21 09:17:00
5:36 AM,17.6,14.0,86,29.81,10.0,WSW,4.6,-,N/A,,Clear,240,2013-03-21 09:36:00
5:57 AM,15.8,14.0,93,29.81,10.0,WSW,4.6,-,N/A,Snow,Light Snow,250,2013-03-21 09:57:00
6:16 AM,15.8,14.0,93,29.81,10.0,WSW,3.5,-,N/A,Snow,Light Snow,250,2013-03-21 10:16:00
6:36 AM,15.8,14.0,93,29.81,10.0,WSW,4.6,-,N/A,,Scattered Clouds,250,2013-03-21 10:36:00
6:57 AM,17.6,14.0,86,29.81,10.0,WSW,4.6,-,N/A,Snow,Light Snow,250,2013-03-21 10:57:00
7:16 AM,17.6,14.0,86,29.81,10.0,WSW,5.8,-,N/A,Snow,Light Snow,240,2013-03-21 11:16:00
7:37 AM,17.6,15.8,93,29.80,10.0,WSW,6.9,-,N/A,,Overcast,250,2013-03-21 11:37:00
7:57 AM,19.4,15.8,86,29.80,10.0,West,5.8,-,N/A,,Overcast,260,2013-03-21 11:57:00
8:16 AM,19.4,15.8,86,29.81,5.0,West,3.5,-,N/A,Snow,Light Snow,260,2013-03-21 12:16:00
8:37 AM,21.2,17.6,86,29.80,7.0,West,8.1,-,N/A,Snow,Light Snow,260,2013-03-21 12:37:00
8:56 AM,21.2,17.6,86,29.80,10.0,West,4.6,-,N/A,Snow,Light Snow,270,2013-03-21 12:56:00
9:17 AM,21.2,17.6,86,29.80,7.0,WSW,8.1,-,N/A,Snow,Light Snow,240,2013-03-21 13:17:00
9:37 AM,21.2,17.6,86,29.81,10.0,West,6.9,-,N/A,Snow,Light Snow,260,2013-03-21 13:37:00
9:56 AM,23.0,19.4,86,29.80,3.0,West,5.8,-,N/A,Snow,Light Snow,260,2013-03-21 13:56:00
10:17 AM,23.0,19.4,86,29.81,2.5,West,6.9,-,N/A,Snow,Light Snow,270,2013-03-21 14:17:00
10:36 AM,24.8,21.2,86,29.81,7.0,West,9.2,-,N/A,Snow,Light Snow,280,2013-03-21 14:36:00
10:57 AM,24.8,21.2,86,29.81,7.0,West,10.4,-,N/A,Snow,Light Snow,280,2013-03-21 14:57:00
11:17 AM,26.6,23.0,86,29.81,10.0,WNW,10.4,-,N/A,Snow,Light Snow,290,2013-03-21 15:17:00
11:37 AM,28.4,23.0,80,29.81,7.0,WNW,12.7,16.1,N/A,Snow,Light Snow,300,2013-03-21 15:37:00
11:57 AM,28.4,23.0,80,29.81,10.0,WNW,12.7,-,N/A,Snow,Light Snow,290,2013-03-21 15:57:00
12:16 PM,30.2,24.8,80,29.81,7.0,West,10.4,-,N/A,,Overcast,280,2013-03-21 16:16:00
12:37 PM,30.2,23.0,75,29.81,10.0,NW,10.4,16.1,N/A,,Overcast,310,2013-03-21 16:37:00
12:56 PM,30.2,23.0,75,29.81,10.0,West,15.0,21.9,N/A,,Overcast,280,2013-03-21 16:56:00
1:17 PM,28.4,23.0,80,29.81,7.0,WNW,12.7,17.3,N/A,,Overcast,290,2013-03-21 17:17:00
1:37 PM,30.2,23.0,75,29.82,10.0,WNW,9.2,-,N/A,,Overcast,290,2013-03-21 17:37:00
1:56 PM,30.2,23.0,75,29.82,10.0,WNW,6.9,-,N/A,,Overcast,290,2013-03-21 17:56:00
2:17 PM,30.2,24.8,80,29.82,3.0,WNW,10.4,-,N/A,Snow,Light Snow,300,2013-03-21 18:17:00
2:36 PM,30.2,24.8,80,29.82,2.5,NW,9.2,-,N/A,Snow,Light Snow,320,2013-03-21 18:36:00
2:57 PM,28.4,24.8,86,29.82,2.5,NW,8.1,-,N/A,Snow,Light Snow,310,2013-03-21 18:57:00
3:17 PM,30.2,26.6,86,29.82,2.5,WNW,8.1,-,N/A,Snow,Light Snow,290,2013-03-21 19:17:00
3:36 PM,30.2,24.8,80,29.82,7.0,West,6.9,-,N/A,,Overcast,280,2013-03-21 19:36:00
3:57 PM,28.4,26.6,93,29.82,1.2,West,6.9,-,N/A,Snow,Light Snow,270,2013-03-21 19:57:00
4:16 PM,28.4,26.6,93,29.82,0.5,WNW,6.9,-,N/A,Snow,Light Snow,300,2013-03-21 20:16:00
4:36 PM,30.2,26.6,86,29.82,4.0,West,8.1,-,N/A,Snow,Light Snow,260,2013-03-21 20:36:00
4:57 PM,30.2,26.6,86,29.83,10.0,WNW,8.1,-,N/A,,Overcast,290,2013-03-21 20:57:00
5:16 PM,30.2,24.8,80,29.83,7.0,West,8.1,-,N/A,Snow,Light Snow,280,2013-03-21 21:16:00
5:37 PM,28.4,26.6,93,29.83,0.8,WNW,5.8,-,N/A,Snow,Light Snow,290,2013-03-21 21:37:00
5:57 PM,30.2,28.4,93,29.83,7.0,WNW,6.9,-,N/A,,Overcast,290,2013-03-21 21:57:00
6:17 PM,28.4,26.6,93,29.84,0.8,NW,6.9,16.1,N/A,Snow,Light Snow,320,2013-03-21 22:17:00
6:37 PM,28.4,26.6,93,29.84,7.0,WNW,5.8,-,N/A,Snow,Light Snow,300,2013-03-21 22:37:00
6:56 PM,28.4,26.6,93,29.84,5.0,WNW,3.5,-,N/A,Snow,Light Snow,300,2013-03-21 22:56:00
7:17 PM,26.6,26.6,100,29.84,0.2,West,8.1,-,N/A,Snow,Snow,280,2013-03-21 23:17:00
7:36 PM,26.6,26.6,100,29.84,5.0,WNW,8.1,-,N/A,Snow,Light Snow,300,2013-03-21 23:36:00
7:57 PM,26.6,24.8,93,29.84,10.0,WNW,6.9,-,N/A,,Overcast,290,2013-03-21 23:57:00
8:16 PM,26.6,24.8,93,29.84,10.0,WNW,6.9,-,N/A,,Mostly Cloudy,290,2013-03-22 00:16:00
8:36 PM,26.6,24.8,93,29.85,10.0,WNW,4.6,-,N/A,,Mostly Cloudy,290,2013-03-22 00:36:00
8:57 PM,28.4,24.8,86,29.85,10.0,WNW,4.6,-,N/A,,Overcast,300,2013-03-22 00:57:00
9:16 PM,28.4,24.8,86,29.86,10.0,West,3.5,-,N/A,Snow,Light Snow,280,2013-03-22 01:16:00
9:37 PM,28.4,24.8,86,29.86,10.0,WNW,8.1,-,N/A,Snow,Light Snow,290,2013-03-22 01:37:00
9:57 PM,28.4,24.8,86,29.86,10.0,WNW,5.8,-,N/A,,Overcast,290,2013-03-22 01:57:00
10:16 PM,26.6,24.8,93,29.86,7.0,WNW,6.9,-,N/A,Snow,Light Snow,290,2013-03-22 02:16:00
10:37 PM,26.6,24.8,93,29.87,4.0,WNW,8.1,-,N/A,Snow,Light Snow,290,2013-03-22 02:37:00
10:56 PM,26.6,24.8,93,29.87,7.0,WNW,4.6,-,N/A,Snow,Light Snow,290,2013-03-22 02:56:00
11:17 PM,26.6,24.8,93,29.87,5.0,West,5.8,-,N/A,Snow,Light Snow,280,2013-03-22 03:17:00
11:37 PM,26.6,24.8,93,29.87,5.0,WNW,6.9,-,N/A,Snow,Light Snow,290,2013-03-22 03:37:00
11:56 PM,26.6,24.8,93,29.88,7.0,West,5.8,-,N/A,Snow,Light Snow,280,2013-03-22 03:56:00